Fort Myers, FL

1:25 AM EST on December 17, 2017 (GMT -0500)
Page

Weather History for KFMY - February, 2012

Change the Weather History Date:

Monday, February 20, 2012

  Actual Average Record
Temperature  
Mean Temperature 69 °F 67 °F  
Max Temperature 79 °F 78 °F 89 °F (1989)
Min Temperature 58 °F 57 °F 35 °F (2015)
Degree Days  
Heating Degree Days 0 2  
Month to date heating degree days 23 46  
Since 1 July heating degree days 126 247  
Cooling Degree Days 4 4  
Month to date cooling degree days 129 70  
Year to date cooling degree days 220 153  
Growing Degree Days 18 (Base 50)    
Moisture  
Dew Point 52 °F    
Average Humidity 59    
Maximum Humidity 81    
Minimum Humidity 33    
Precipitation  
Precipitation 0.00 in 0.08 in 5.06 in (1902)
Month to date precipitation 0.27 1.49  
Year to date precipitation 0.42 3.43  
Sea Level Pressure  
Sea Level Pressure 30.07 in    
Wind  
Wind Speed 8 mph (NNE)    
Max Wind Speed 16 mph    
Max Gust Speed 22 mph    
Visibility 10 miles    
Events      
T = Trace of Precipitation, MM = Missing Value Source: NWS Daily Summary

Daily Weather History Graph

Daily Weather History Graph

Search for Another Location

Airport or City:

Trip Planner

Search our weather history database for the weather conditions in past years. The results will help you decide how hot, cold, wet, or windy it might be!

Date:

Astronomy

Feb. 20, 2012 Rise Set
Actual Time 6:59 AM EST 6:22 PM EST
Civil Twilight 6:36 AM EST 6:46 PM EST
Nautical Twilight 6:09 AM EST 7:13 PM EST
Astronomical Twilight 5:42 AM EST 7:40 PM EST
Moon 5:52 AM EST (2/20) 5:27 PM EST (2/20)
Length of Visible Light 12h 10m
Length of Day
11h 23m
Waning Crescent, 2% of the Moon is Illuminated
Feb 20
Waning Crescent
Feb 21
New
Feb 29
First Quarter
Mar 8
Full
Mar 14
Last Quarter

Hourly Weather History & Observations

Time (EST) Temp. Dew Point Humidity Pressure Visibility Wind Dir Wind Speed Gust Speed Precip Events Conditions
12:05 AM 68.0 °F 59.0 °F 73% 29.97 in 10.0 mi WNW 9.2 mph - N/A   Scattered Clouds
12:53 AM 66.9 °F 60.1 °F 79% 29.98 in 10.0 mi NW 6.9 mph - N/A   Overcast
1:53 AM 68.0 °F 55.9 °F 65% 29.99 in 10.0 mi NW 11.5 mph - N/A   Overcast
2:02 AM 66.2 °F 57.2 °F 73% 29.97 in 10.0 mi NW 13.8 mph 21.9 mph N/A   Overcast
2:53 AM 66.9 °F 55.0 °F 66% 29.98 in 10.0 mi NNW 16.1 mph - N/A   Overcast
3:53 AM 66.0 °F 54.0 °F 65% 29.99 in 10.0 mi NW 9.2 mph - N/A   Overcast
4:53 AM 64.9 °F 54.0 °F 68% 29.99 in 10.0 mi NNW 9.2 mph - N/A   Overcast
5:53 AM 64.0 °F 53.1 °F 67% 30.01 in 10.0 mi North 6.9 mph - N/A   Overcast
6:53 AM 63.0 °F 53.1 °F 70% 30.04 in 10.0 mi North 9.2 mph - N/A   Overcast
7:35 AM 62.6 °F 53.6 °F 72% 30.05 in 10.0 mi North 6.9 mph - N/A   Scattered Clouds
7:53 AM 64.0 °F 53.1 °F 67% 30.06 in 10.0 mi North 5.8 mph - N/A   Scattered Clouds
8:53 AM 66.0 °F 52.0 °F 60% 30.09 in 10.0 mi NNE 8.1 mph - N/A   Scattered Clouds
9:06 AM 66.2 °F 51.8 °F 60% 30.10 in 10.0 mi North 10.4 mph - N/A   Mostly Cloudy
9:53 AM 64.9 °F 51.1 °F 61% 30.12 in 10.0 mi NE 6.9 mph - N/A   Scattered Clouds
10:53 AM 66.9 °F 51.1 °F 57% 30.12 in 10.0 mi Variable 5.8 mph - N/A   Scattered Clouds
11:53 AM 70.0 °F 50.0 °F 49% 30.12 in 10.0 mi Variable 4.6 mph - N/A   Clear
12:53 PM 72.0 °F 48.9 °F 44% 30.10 in 10.0 mi East 4.6 mph - N/A   Clear
1:53 PM 73.0 °F 48.9 °F 42% 30.08 in 10.0 mi Variable 3.5 mph - N/A   Clear
2:53 PM 77.0 °F 48.0 °F 36% 30.07 in 10.0 mi NNE 8.1 mph - N/A   Clear
3:53 PM 77.0 °F 48.0 °F 36% 30.07 in 10.0 mi NNE 4.6 mph - N/A   Clear
4:53 PM 77.0 °F 46.9 °F 34% 30.08 in 10.0 mi NE 11.5 mph - N/A   Clear
5:53 PM 73.9 °F 48.0 °F 40% 30.09 in 10.0 mi ENE 8.1 mph - N/A   Clear
6:53 PM 69.1 °F 48.0 °F 47% 30.12 in 10.0 mi East 4.6 mph - N/A   Clear
7:53 PM 68.0 °F 51.1 °F 55% 30.14 in 10.0 mi East 8.1 mph - N/A   Clear
9:53 PM 62.1 °F 50.0 °F 65% 30.18 in 10.0 mi ENE 9.2 mph - N/A   Clear
10:53 PM 60.1 °F 48.9 °F 67% 30.19 in 10.0 mi ENE 6.9 mph - N/A   Clear
11:53 PM 59.0 °F 48.9 °F 69% 30.19 in 10.0 mi ENE 8.1 mph - N/A   Clear